Location: Bowden
(51.9167°N, 114.0333°W)
Time: 01:59:11
(UTC+00:00)

Envisat - Pass Details

Date: 10 December 2021
Orbit: 764 x 766 km, 98.2° (Epoch: 28 January)

Event Time Altitude Azimuth Distance (km) Brightness Sun altitude
Rises 13:26:50 0° 11° (N) 3,248 6.2 -18.2°
Reaches altitude 10° 13:29:12 10° 6° (N) 2,317 5.4 -17.9°
Maximum altitude 13:34:06 49° 293° (WNW) 986 3.1 -17.1°
Drops below altitude 10° 13:38:58 10° 219° (SW) 2,300 5.2 -16.4°
Sets 13:41:19 0° 214° (SW) 3,222 6.1 -16.1°
